Regional Weather Roundup
Issued by NWS

Home | Current Version | Previous Version | Graphics & Text | Print | Product List | Glossary On
Versions: 1 2 3 4 5 6 7 8 9 10 11 12 13 14 15 16 17 18 19 20 21 22 23 24 25 26 27 28 29 30 31 32 33 34 35 36 37 38 39 40 41 42 43 44 45 46 47 48 49 50
000
ASUS43 KMKX 291200
RWRWI

WISCONSIN REGIONAL WEATHER ROUNDUP
NATIONAL WEATHER SERVICE MILWAUKEE/SULLIVAN WI
700 AM CDT SAT APR 29 2017

NOTE: "FAIR" INDICATES FEW OR NO CLOUDS BELOW 12,000 FEET WITH NO
SIGNIFICANT WEATHER AND/OR OBSTRUCTIONS TO VISIBILITY.

WIZ001-002-006>008-014>016-023>028-291300-
NORTHWEST WISCONSIN

CITY           SKY/WX    TMP DP  RH WIND       PRES   REMARKS
SUPERIOR ARPT  CLOUDY    25  24  96 SW3       30.27R
ASHLAND        CLOUDY    31  28  89 CALM      30.27R
6HR MIN TEMP:  25; 6HR MAX TEMP:  31;

HAYWARD        MOCLDY    27  24  89 CALM      30.27R
6HR MIN TEMP:  23; 6HR MAX TEMP:  30;

SIREN          CLOUDY    28  26  93 CALM      30.27R
CUMBERLAND     CLOUDY    30  27  86 CALM      30.25R
RICE LAKE      CLOUDY    31  30  94 CALM      30.26R
CHETEK         NOT AVBL
LADYSMITH      MOSUNNY   31  28  89 CALM      30.28R
EAU CLAIRE     NOT AVBL
MENOMONIE      PTCLDY    34  28  77 E3        30.29R
NEW RICHMOND   PTCLDY    32  28  83 SE5       30.31R WCI  28
OSCEOLA        CLOUDY    33  28  79 CALM      30.31R
$$

WIZ003>005-009-010-017-018-291300-
NORTH CENTRAL WISCONSIN

CITY           SKY/WX    TMP DP  RH WIND       PRES   REMARKS
MANITOWISH WTR NOT AVBL
ARBOR VITAE    MOSUNNY   27  25  92 CALM      30.21R
WOODRUFF       MOSUNNY   27  25  92 CALM      30.21R
RHINELANDER    SUNNY     32  26  78 CALM      30.28R
6HR MIN TEMP:  27; 6HR MAX TEMP:  32;

EAGLE RIVER    SUNNY     26  24  91 CALM      30.23R
LAND O LAKES   CLOUDY    31  24  75 E3        30.24R
PHILLIPS       PTSUNNY   26  25  95 CALM      30.23R
TOMAHAWK       SUNNY     28  26  91 CALM      30.29R
MEDFORD        SUNNY     31  25  78 CALM      30.26R
MERRILL        SUNNY     30  27  88 CALM      30.28R
$$

WIZ029-030-035-036-043>047-291300-
CENTRAL WISCONSIN

CITY           SKY/WX    TMP DP  RH WIND       PRES   REMARKS
WAUSAU         SUNNY     33  27  78 CALM      30.26R
6HR MIN TEMP:  30; 6HR MAX TEMP:  36;

MOSINEE        MOSUNNY   32  28  86 N3        30.28R
MARSHFIELD     SUNNY     34  27  75 NE7       30.26R WCI  28
6HR MIN TEMP:  31; 6HR MAX TEMP:  39;

STEVENS POINT  CLOUDY    29  26  88 N5        30.27R WCI  24
WAUPACA        SUNNY     36  28  74 N5        30.24F WCI  32
WAUTOMA        CLOUDY    36  27  69 NE9       30.27R WCI  29
6HR MIN TEMP:  35; 6HR MAX TEMP:  44;

WISC RAPIDS    SUNNY     36  28  73 NE7       30.27R WCI  30
6HR MIN TEMP:  33; 6HR MAX TEMP:  42;

CAMP DOUGLAS   NOT AVBL
$$

WIZ011>013-019>022-031-037>040-048>050-291300-
NORTHEAST WISCONSIN

CITY           SKY/WX    TMP DP  RH WIND       PRES   REMARKS
ANTIGO         SUNNY     30  25  80 N3        30.25S
SHAWANO        SUNNY     34  28  80 N3        30.26R
OCONTO         SUNNY     33  28  81 CALM      30.27R
STURGEON BAY   SUNNY     37  28  70 N9        30.26R WCI  30
6HR MIN TEMP:  33; 6HR MAX TEMP:  42;

GREEN BAY      SUNNY     37  29  72 N14       30.23F WCI  28
6HR MIN TEMP:  35; 6HR MAX TEMP:  44;

MANITOWOC      NOT AVBL
APPLETON       MOSUNNY   34  27  75 N8        30.21S WCI  27
CLINTONVILLE   SUNNY     34  28  80 N5        30.26R WCI  30
OSHKOSH        MOSUNNY   38  28  67 NE14      30.23R WCI  30
6HR MIN TEMP:  37; 6HR MAX TEMP:  45;

$$

WIZ032>034-041-042-053>061-291300-
SOUTHWEST WISCONSIN

CITY           SKY/WX    TMP DP  RH WIND       PRES   REMARKS
LA CROSSE      PTCLDY    40  28  62 NE12G20   30.23F WCI  33
6HR MIN TEMP:  37; 6HR MAX TEMP:  44;

SPARTA         SUNNY     36  29  75 NE9       30.25R WCI  29
VIROQUA        PTCLDY    36  32  86 NE12      30.20R WCI  28
BOSCOBEL       PTCLDY    43  32  65 NE8       30.21R
6HR MIN TEMP:  41; 6HR MAX TEMP:  46;

PRAIRIE DU CHI CLOUDY    42  30  62 N3        30.19R
PLATTEVILLE    CLOUDY    42  36  78 NE12      30.16R
$$

WIZ056-057-062-063-064-067-068-291300-
SOUTH CENTRAL WISCONSIN

CITY           SKY/WX    TMP DP  RH WIND       PRES   REMARKS
REEDSBURG      NOT AVBL
BARABOO/DELLS  CLOUDY    38  31  77 NE10      30.20R WCI  30
LONE ROCK      NOT AVBL
MINERAL POINT  MOSUNNY   43  36  75 NE10G16   30.16R
MADISON        PTSUNNY   41  33  73 NE9       30.20R
6HR MIN TEMP:  39; 6HR MAX TEMP:  45;

MIDDLETON      MOSUNNY   42  33  73 NE8       30.18S
WATERTOWN      MOSUNNY   39  33  80 NE6       30.19R WCI  35
MONROE         MOSUNNY   41  34  75 NE16      30.14S
JANESVILLE     MOSUNNY   45  36  70 E10       30.16S
$$

WIZ051-052-058>065-066-070>072-291300-
SOUTHEAST WISCONSIN

CITY           SKY/WX    TMP DP  RH WIND       PRES   REMARKS
MILWAUKEE      CLOUDY    41  35  79 N21G28    30.20R
6HR MIN TEMP:  41; 6HR MAX TEMP:  45;

WAUKESHA       SUNNY     39  30  70 NE12      30.19R WCI  32
MILWAUKEE/TIMM PTSUNNY   39  32  75 NE15G24   30.21R WCI  31
RACINE         CLOUDY    42  32  67 NE17G26   30.21R
6HR MIN TEMP:  42; 6HR MAX TEMP:  43;

KENOSHA        CLOUDY    42  30  62 NE15      30.18R
6HR MIN TEMP:  42; 6HR MAX TEMP:  44; 6HR PCP: TRACE;

FOND DU LAC    MOSUNNY   38  24  57 NE17G25   30.22R WCI  28
6HR MIN TEMP:  38; 6HR MAX TEMP:  46;

SHEBOYGAN      MOSUNNY   36  30  79 N12       30.20S WCI  28
6HR MIN TEMP:  36; 6HR MAX TEMP:  43;

WEST BEND      CLOUDY    37  34  87 NE17G25   30.19R WCI  28
JUNEAU         CLOUDY    38  32  77 N10       30.20R WCI  32
$$

LSZ147-162-291300-
LAKE SUPERIOR

STATION/POSITION TIME  TEMP    WIND        PRES    WAVE
                       AIR SEA DIR/SP/G            HT/PER
                 (UTC) (F)     (DEG/KT/KT) (MB)    (FT/S)
DEVILS ISLAND    1100   36      10/  6/  7 1024.5S
SAXON HARBOR     1140   27     200/  4/  5 1024.7R
$$

LMZ867-665-643>646-291300-
LAKE MICHIGAN

STATION/POSITION TIME  TEMP    WIND        PRES    WAVE
                       AIR SEA DIR/SP/G            HT/PER
                 (UTC) (F)     (DEG/KT/KT) (MB)    (FT/S)
CHAMBERS ISLAND  1140   38     330/ 11/ 12 1024.0F
N MID LAKE BUOY  1050   36 37  360/  6/  8 1025.9R   2/ 4
NORTHPORT PIER   1140   37     350/ 10/ 13 1024.4F
SISTER BAY       1121   36      30/  9/ 11   N/A
KEWAUNEE LAKESHO 1130   36     360/  6/  9 1023.5S
SHEBOYGAN LAKESH 1100   39      20/ 23/ 26 1023.2R
PORT WASHINGTON  1140   40      30/  8/ 14 1023.7R
MILWAUKEE LAKESH 1130   41      30/ 22/ 25   N/A
S MID LAKE BUOY  1050   42 41   20/ 16/ 19 1020.2R   3/ 4
KENOSHA   LAKESH 1100   43      20/ 22/ 26 1021.3
$$

TC  - TEMPERATURE IN CELSIUS
VSB - VISIBILITY IN STATUTE MILES
WCI - WIND CHILL INDEX
HX  - HEAT INDEX





USA.gov is the U.S. government's official web portal to all federal, state and local government web resources and services.